Вернуться в каталог

TITAN 34B R/B

АктивенHEO
NORAD 7688·ROCKET BODY·🇺🇸 United States

Запущен Mar 10, 1975 с Vandenberg Space Force Base

Loading…

Ближайшие Пролёты (ближайшие 24 часа)

TLE

СвежийSource: Space-Track

Эпоха: Sep 14, 2026, 14:50 UTC

1  7688U 75017B   26257.61808560  .00014510  00000-0  71335-3 0  9998
2  7688  63.2713 107.2368 5291818 273.6595  30.2236  5.21822829120885

Отслеживайте TITAN 34B R/B в реальном времени с AllMySat

Download on the App Store